Location: Unspecified
(49.2170°N, 0.0000°E)
Time: 15:13:54
(UTC+00:00)

SR - Pass Details

Date: 24 January 2021
Orbit: 573 x 882 km, 66.7° (Epoch: 05 March)

Event Time Altitude Azimuth Distance (km) Brightness Sun altitude
Exits shadow 05:30:10 49° 265° (W) 929 ? -21.1°
Maximum altitude 05:31:10 60° 311° (NW) 842 ? -21.0°
Drops below altitude 10° 05:36:28 10° 31° (NNE) 2,345 ? -20.1°
Sets 05:39:03 0° 36° (NE) 3,326 ? -19.7°
